Hourly Data Report for September 01, 2017

All times are specified in Local Standard Time (LST). Add 1 hour to adjust for Daylight Saving Time where and when it is observed.

MONCTON INTL A
NEW BRUNSWICK

46°06'44.000" N
64°40'43.000" W
70.70 m
8103201
71705
YQM

Download Data

Hourly Data (September 2017)
Hourly Data Report for September 1, 2017
Temp Definition
°C
Dew Point Temp Definition
°C
Rel Hum Definition
%
Wind Dir Definition
10's deg

Wind Spd Definition
km/h
Visibility Definition
km
Stn Press Definition
kPa
Hmdx Definition


Wind Chill Definition


Weather Definition


TIME
00:00 Legend Double Dagger 11.6 8.0 78 26 18 24.1 99.64     LegendNANA
01:00 Legend Double Dagger 10.5 7.0 79 25 16 24.1 99.70     LegendNANA
02:00 Legend Double Dagger 9.8 6.9 82 25 17 24.1 99.70     Clear
03:00 Legend Double Dagger 9.2 7.0 86 23 14 24.1 99.71     LegendNANA
04:00 Legend Double Dagger 8.8 7.2 90 24 19 24.1 99.71     LegendNANA
05:00 Legend Double Dagger 8.9 7.3 89 24 23 24.1 99.71     Mainly Clear
06:00 Legend Double Dagger 9.1 7.4 89 24 22 24.1 99.76     LegendNANA
07:00 Legend Double Dagger 10.0 7.8 86 23 17 24.1 99.77     LegendNANA
08:00 Legend Double Dagger 11.3 7.8 79 24 21 24.1 99.79     Mostly Cloudy
09:00 Legend Double Dagger 12.0 5.6 65 26 24 24.1 99.79     LegendNANA
10:00 Legend Double Dagger 13.6 6.2 61 26 25 24.1 99.79     LegendNANA
11:00 Legend Double Dagger 14.6 5.2 53 26 27 24.1 99.75     Mostly Cloudy
12:00 Legend Double Dagger 14.4 4.4 51 24 26 24.1 99.72     LegendNANA
13:00 Legend Double Dagger 15.6 3.2 43 24 27 24.1 99.71     LegendNANA
14:00 Legend Double Dagger 16.1 1.4 37 24 32 24.1 99.68     Mostly Cloudy
15:00 Legend Double Dagger 10.9 6.6 75 28 34 19.3 99.78     Rain Showers
16:00 Legend Double Dagger 12.2 4.6 59 26 30 24.1 99.80     Rain Showers
17:00 Legend Double Dagger 11.0 6.3 72 27 25 24.1 99.83     Rain Showers
18:00 Legend Double Dagger 10.5 6.4 75 25 24 24.1 99.89     LegendNANA
19:00 Legend Double Dagger 9.6 6.4 80 25 24 24.1 99.92     LegendNANA
20:00 Legend Double Dagger 9.4 6.5 82 25 26 24.1 100.02     Mostly Cloudy
21:00 Legend Double Dagger 8.5 6.6 88 25 19 24.1 100.06     LegendNANA
22:00 Legend Double Dagger 9.3 6.8 84 26 24 24.1 100.13     LegendNANA
23:00 Legend Double Dagger 8.9 6.6 85 27 15 24.1 100.16     Mostly Cloudy

Notes on Data Quality.

Legend

  • E = Estimated
  • M = Missing
  • NA = Not Available
  • ‡ = Partner data that is not subject to review by the National Climate Archives
Date modified: